User: anonymous
Location: Unspecified
(0.0000°N, 0.0000°E)
Time: 10:58:13
(UTC+02:00)
Language:

Meteor 1-31 Rocket - Orbit

View from above orbital plane
View from above orbital plane
View from above satellite
View from above satellite

Ground track
Ground track

The orbit data is extracted from the following two-line orbital elements,

1 12586U 81065B   14204.47148832  .00000390  00000-0  30600-4 0  4259
2 12586 097.4053 201.9397 0019682 233.5885 126.3528 15.06197141796726
Epoch (UTC): 23 July 2014 11:18:56
Eccentricity: 0.0019682
inclination: 97.4053°
perigee height: 534 km
apogee height: 561 km
right ascension of ascending node: 201.9397°
argument of perigee: 233.5885°
revolutions per day: 15.06197141
mean anomaly at epoch: 126.3528°
orbit number at epoch: 79672

The dashed part of the orbit path shows where the satellite is in the earth's shadow,  

DLR